Location: Braunsdorf
(50.7357°N, 11.9136°E)
Time: 00:46:37
(UTC+00:00)

Cosmos 2369 Rocket - Pass Details

Date: 17 February 2020
Orbit: 827 x 854 km, 71.0° (Epoch: 04 April)

Event Time Altitude Azimuth Distance (km) Brightness Sun altitude
Exits shadow 04:49:29 - 325° (NW) 2,992 4.7 -15.2°
Reaches altitude 10° 04:50:50 10° 323° (NW) 2,493 4.3 -15.0°
Maximum altitude 04:56:21 51° 249° (WSW) 1,067 2.4 -14.1°
Drops below altitude 10° 05:01:50 10° 175° (S) 2,478 4.7 -13.3°
Sets 05:04:20 0° 170° (S) 3,409 5.5 -12.9°
